Location: Roland
(31.1349°N, 85.4372°W)
Time: 05:01:33
(UTC+00:00)

Courier 1B - Pass Details

Date: 20 April 2021
Orbit: 962 x 1209 km, 28.3° (Epoch: 07 May)

Event Time Altitude Azimuth Distance (km) Brightness Sun altitude
Rises 18:50:13 0° 254° (WSW) 3,716 10.8 64.8°
Reaches altitude 10° 18:52:57 10° 251° (WSW) 2,740 10.4 64.4°
Maximum altitude 18:59:27 64° 172° (S) 1,062 9.3 63.4°
Drops below altitude 10° 19:05:49 10° 92° (E) 2,687 9.7 62.4°
Sets 19:08:28 0° 89° (E) 3,639 10.3 62.0°
